This demonstration page uses our WeatherBlox Daily Observations layout. Learn more.

Hourly Observations for January 21, 2020

Temp ( °F °C ) Dew Point ( °F °C ) Humidity (%) Winds ( mph kmh ) Pressure ( in mb ) Visibility ( mi km ) Precip ( " mm )
12:53 am 00:53 Cloudy 25 -3.9 15 -9.4 66 66 NNE 5 7 30.61 1037 10 16.0934 0 0
1:53 am 01:53 Cloudy 25 -3.9 14 -10 63 63 N 9 15 30.61 1037 10 16.0934 0 0
2:53 am 02:53 Cloudy 24 -4.4 13 -10.6 62 62 NNE 8 13 30.63 1037 10 16.0934 0 0
3:30 am 03:30 Cloudy 23 -5 11 -11.7 60 60 N 3 6 30.65 1038 10 16.0934 0 0
3:53 am 03:53 Partly Cloudy 22 -5.6 10 -12.2 60 60 N 3 6 30.63 1037 10 16.0934 0 0
4:53 am 04:53 Cloudy 21 -6.1 12 -11.1 68 68 NW 3 6 30.63 1037 10 16.0934 0 0
5:53 am 05:53 Mostly Cloudy 18 -7.8 12 -11.1 77 77 Calm 30.65 1038 10 16.0934 0 0
6:53 am 06:53 Clear 17 -8.3 12 -11.1 80 80 ESE 3 6 30.65 1038 10 16.0934 0 0
7:53 am 07:53 Mostly Cloudy 16 -8.9 12 -11.1 84 84 Calm 30.67 1039 10 16.0934 0 0
8:53 am 08:53 Cloudy 20 -6.7 14 -10 78 78 Calm 30.69 1039 10 16.0934 0 0
9:18 am 09:18 Mostly Cloudy 22 -5.6 13 -10.6 68 68 Calm 30.72 1040 10 16.0934 0 0
9:29 am 09:29 Mostly Cloudy 23 -5 14 -10 68 68 Calm 30.72 1040 10 16.0934 0 0
9:53 am 09:53 Mostly Sunny 24 -4.4 12 -11.1 60 60 Calm 30.69 1039 10 16.0934 0 0
10:53 am 10:53 Sunny 26 -3.3 12 -11.1 55 55 Calm 30.69 1039 10 16.0934 0 0
11:53 am 11:53 Mostly Cloudy 27 -2.8 13 -10.6 55 55 N 5 7 30.67 1039 10 16.0934 0 0
12:53 pm 12:53 Mostly Cloudy 28 -2.2 14 -10 56 56 VRB 6 9 30.64 1038 10 16.0934 0 0
1:53 pm 13:53 Mostly Sunny 28 -2.2 13 -10.6 53 53 W 3 6 30.61 1037 10 16.0934 0 0
2:53 pm 14:53 Sunny 30 -1.1 13 -10.6 49 49 Calm 30.59 1036 10 16.0934 0 0
3:53 pm 15:53 Sunny 30 -1.1 13 -10.6 49 49 VRB 5 7 30.58 1036 10 16.0934 0 0
4:53 pm 16:53 Sunny 30 -1.1 14 -10 51 51 Calm 30.58 1035 10 16.0934 0 0
5:53 pm 17:53 Clear 27 -2.8 15 -9.4 61 61 Calm 30.59 1036 10 16.0934 0 0
6:53 pm 18:53 Clear 23 -5 14 -10 68 68 Calm 30.59 1036 10 16.0934 0 0
7:53 pm 19:53 Clear 20 -6.7 14 -10 78 78 Calm 30.59 1036 10 16.0934 0 0
8:53 pm 20:53 Clear 19 -7.2 15 -9.4 84 84 Calm 30.59 1036 10 16.0934 0 0
9:53 pm 21:53 Clear 18 -7.8 14 -10 84 84 Calm 30.57 1035 10 16.0934 0 0
10:53 pm 22:53 Clear 18 -7.8 13 -10.6 81 81 Calm 30.53 1034 9 14.48406 0 0
11:53 pm 23:53 Clear 17 -8.3 13 -10.6 84 84 Calm 30.52 1034 10 16.0934 0 0

Powered by AerisWeather